Home > Weather > Freienbach > Past weeks

Flag for Switzerland Weather for the Past 2 Weeks in Freienbach, Schwyz, Switzerland

Now
46 °F

Light rain. Broken clouds.


Feels Like: 44 °F
Forecast: 36 / 42 °F
Wind: 6 mph from South

Location: Zurich-Kloten

Current Time: Feb 9, 2016 at 3:53:36 PM

Latest Report: Feb 9, 2016 at 3:20 PM


Visibility: N/A

Pressure: 29.39 "Hg

Humidity: 87%

Dew point: 43 °F

Location of FreienbachLocation

Historic Weather in Freienbach — Graph

°F

Freienbach Temperature Yesterday

Maximum temperature yesterday: 54 °F (at 2:50 PM)
Minimum temperature yesterday: 36 °F (at 3:50 AM)
Average temperature yesterday: 46 °F

High & Low Weather Summary for the Past Weeks

 TemperatureHumidityPressure
High55 °F (Feb 1, 11:20 AM)100% (Jan 30, 3:50 AM)30.48 "Hg (Jan 30, 3:50 AM)
Low30 °F (Jan 30, 5:50 AM)47% (Jan 25, 2:50 PM)29.39 "Hg (Feb 9, 2:20 PM)
Average43 °F81%30.17 "Hg
* Reported Jan 25 2:20 PM — Feb 9 2:20 PM, Freienbach, Weather by CustomWeather, © 2016

Note: Actual official high and low records may vary slightly from our data, if they occured in-between our weather recording intervals... More about our weather records

Advertising

Freienbach Weather History for the Previous 24 Hours

 ConditionsComfort  
Time TempWeatherWind HumidityBarometerVisibility
2:20 PM
Tue, Feb 9
46 °FLight rain. Broken clouds.10 mph87%29.39 "HgN/A
1:50 PM46 °FLight rain. Broken clouds.8 mph87%29.42 "HgN/A
1:20 PM48 °FRain. Partly sunny.7 mph76%29.45 "HgN/A
12:50 PM48 °FLight rain. Partly sunny.5 mph76%29.47 "HgN/A
12:20 PM48 °FPartly sunny.7 mph76%29.50 "HgN/A
11:20 AM46 °FPartly sunny.7 mph76%29.56 "HgN/A
10:50 AM46 °FPartly sunny.10 mph76%29.59 "HgN/A
10:20 AM46 °FPartly sunny.9 mph76%29.59 "HgN/A
9:50 AM46 °FPartly sunny.9 mph76%29.62 "HgN/A
9:20 AM46 °FLight rain. Partly sunny.8 mph76%29.65 "HgN/A
8:50 AM46 °FLight rain. Partly sunny.7 mph76%29.65 "HgN/A
8:20 AM48 °FPartly sunny.9 mph71%29.65 "HgN/A
7:50 AM46 °FPartly sunny.6 mph76%29.65 "HgN/A
7:20 AM46 °FPassing clouds.5 mph76%29.68 "HgN/A
6:50 AM48 °FPassing clouds.12 mph71%29.71 "HgN/A
6:20 AM48 °FLight rain. Passing clouds.10 mph71%29.74 "HgN/A
5:50 AM46 °FPassing clouds.6 mph76%29.74 "HgN/A
5:20 AM46 °FPassing clouds.8 mph76%29.77 "HgN/A
4:50 AM46 °FPassing clouds.13 mph71%29.77 "HgN/A
4:20 AM46 °FPassing clouds.10 mph76%29.80 "HgN/A
3:50 AM45 °FPassing clouds.8 mph81%29.80 "HgN/A
3:20 AM46 °FPassing clouds.13 mph76%29.83 "HgN/A
2:20 AM43 °FSprinkles. Passing clouds.6 mph87%29.86 "HgN/A
1:50 AM45 °FSprinkles. Passing clouds.10 mph76%29.86 "HgN/A
12:50 AM46 °FScattered showers. Passing clouds.13 mph76%29.86 "HgN/A
12:20 AM46 °FScattered showers. Passing clouds.15 mph76%29.86 "HgN/A
11:20 PM
Mon, Feb 8
48 °FScattered showers. Passing clouds.22 mph71%29.83 "HgN/A
10:50 PM46 °FSprinkles. Passing clouds.15 mph82%29.83 "HgN/A
10:20 PM48 °FSprinkles. Passing clouds.15 mph76%29.83 "HgN/A
9:50 PM48 °FScattered showers. Passing clouds.14 mph76%29.83 "HgN/A
9:20 PM48 °FScattered showers. Partly cloudy.18 mph71%29.80 "HgN/A
8:50 PM48 °FScattered showers. Partly cloudy.24 mph71%29.83 "HgN/A
8:20 PM46 °FSprinkles. Partly cloudy.18 mph82%29.80 "HgN/A
7:50 PM50 °FSprinkles. Partly cloudy.22 mph71%29.80 "Hg5 mi
7:20 PM50 °FScattered showers. Partly cloudy.24 mph67%29.77 "HgN/A
6:50 PM50 °FScattered showers. Partly cloudy.26 mph67%29.77 "HgN/A
6:20 PM50 °FScattered showers. Partly cloudy.28 mph67%29.74 "HgN/A
5:50 PM50 °FPartly cloudy.25 mph71%29.74 "HgN/A
5:20 PM50 °FBroken clouds.25 mph71%29.71 "HgN/A
4:50 PM50 °FScattered showers. Broken clouds.22 mph67%29.71 "HgN/A
4:20 PM52 °FBroken clouds.24 mph62%29.68 "HgN/A
3:50 PM54 °FPartly sunny.21 mph54%29.68 "HgN/A
3:20 PM54 °FBroken clouds.21 mph58%29.68 "HgN/A
Weather by CustomWeather, © 2016

See weather overviewHow to use our weather pages